ARIANE 5 R/B (44477 NORAD) Tracking and Keplerian Element Data

This shows tracking and keplerian element data for the satellite.

Feedback or suggestion? Click here.




ElementValue
Catalog44477
NameARIANE 5 R/B
Epoch Orbit65
Epoch Day247.20684884
Epoch Year2019
RAAN62.6159
Inclination4.658
Eccentricity0.7279162
Argument of Perigee203.0575
Mean Anonmoly92.1463
Mean Motion2.29977541
Decay Rate1.679E-05
L11 44477U 19049C 19247.20684884 .00001679 00000-0 26235-3 0 9996
L22 44477 4.6580 62.6159 7279162 203.0575 92.1463 2.29977541 658

Live tracking and technical data element details for ARIANE 5 R/B (NORAD 44477). ARIANE 5 R/B can be tracked NOW for your location showing map with azimuth and elevation plus other details from your city location.

Track the satellite on the map from your city or location and see movement details for azimuth, elevation, latitude, longitude, range, height, and movement on the map or in text.







IsCatalogInMostPopularTable: catalog: 44477, numindb: 15
Update: records affected: 1



GetName: 44477 ARIANE 5 R/B

Hit Count: updated at: Wed, 23 Oct 2019 00:46:30 GMT